[[{"header":{"parameterUnit":"m.s-1","parameterCategory":1,"la1":30.2991,"la2":30.254,"lo1":-89.0895,"lo2":-89.0444,"dy":0.0017,"dx":0.0017,"nx":28,"ny":28,"refTime":"2023-05-23T21:00:00:Z","depth":0,"parameterNumber":2,"parameterNumberName":"U-component_of_WINDS"},"data":[0,0,0,0,0,0,0,0,0,0,0,0,0,0,0,0,0,0,0,0,0,0,0,0,0,0,0,0,0,0,0,0,0,0,0,0,0,0,0,0,0,0,0,0,0,0,0,0,0,0,0,0,0,0,0,0,0,0,-2.6987,-2.6988,0,-2.7071,-2.7072,-2.7073,-2.7033,-2.7031,-2.7029,-2.7027,-2.7117,-2.7121,-2.7125,0,0,0,0,0,0,0,0,0,0,0,0,0,-2.6795,-2.6799,-2.6987,-2.6988,-2.6989,-2.7071,-2.7072,-2.7074,-2.7034,-2.7031,-2.7029,-2.7026,-2.7115,-2.712,-2.7126,0,0,0,0,0,0,0,0,0,0,0,0,0,-2.6879,-2.68,-2.6987,-2.6979,-2.6979,-2.7071,-2.7072,-2.7074,-2.7034,-2.7031,-2.7028,-2.7025,-2.7113,-2.712,-2.7126,-2.7231,0,0,-2.7146,-2.7149,0,0,0,0,0,0,0,0,-2.6874,-2.6886,-2.6979,-2.698,-2.698,-2.7038,-2.7037,-2.7127,-2.7035,-2.7014,-2.7027,-2.7023,-2.7093,-2.7101,-2.7124,-2.7236,-2.7239,-2.7147,-2.7151,-2.7154,-2.7156,0,0,0,0,0,0,0,-2.6869,-2.6882,-2.7021,-2.6981,-2.6981,-2.6973,-2.6981,-2.7054,-2.7071,-2.7015,-2.7012,-2.7023,-2.7093,-2.7118,-2.7126,-2.7241,-2.7147,-2.7153,-2.7157,-2.7159,-2.7444,-2.7447,0,0,0,0,0,0,-2.6863,-2.6878,-2.7018,-2.7023,-2.6918,-2.6979,-2.6988,-2.7023,-2.707,-2.7074,-2.7025,-2.7021,-2.7108,-2.7119,-2.7129,-2.7257,-2.7154,-2.716,-2.7164,-2.744,-2.7445,-2.7449,0,0,0,0,0,0,-2.6859,-2.6875,-2.7015,-2.695,-2.6967,-2.6985,-2.7025,-2.7027,-2.7052,-2.7077,-2.708,-2.7048,-2.7106,-2.712,-2.7206,-2.7259,-2.7163,-2.7169,-2.7436,-2.7442,-2.7447,-2.7512,0,0,0,0,0,0,-2.6853,-2.6874,-2.6914,-2.6951,-2.697,-2.709,-2.7028,-2.703,-2.7063,-2.7057,-2.7099,-2.7103,-2.7105,-2.7197,-2.7213,-2.7267,-2.7174,-2.7431,-2.7439,-2.7445,-2.7506,-2.7519,-2.7531,0,0,0,0,0,-2.6847,-2.6929,-2.6916,-2.6933,-2.702,-2.7093,-2.7104,-2.7103,-2.7067,-2.7108,-2.7124,-2.7102,-2.725,-2.7206,-2.7224,-2.728,-2.7428,-2.7437,-2.7444,-2.75,-2.7517,-2.7531,0,0,0,0,0,0,-2.6899,-2.6934,-2.692,-2.7017,-2.7052,-2.7086,-2.7137,-2.7121,-2.7168,-2.7161,-2.7159,-2.7169,-2.7259,-2.7278,-2.7228,-2.7385,-2.7334,-2.7346,-2.737,-2.7386,-2.7399,-2.7393,-2.7179,0,0,0,0,0,-2.6922,-2.6977,-2.7005,-2.7088,-2.7106,-2.7118,-2.715,-2.7146,-2.7183,-2.7198,-2.7221,-2.7259,-2.7314,-2.7351,-2.7403,-2.7507,-2.7517,-2.7555,-2.7568,-2.7578,-2.7589,-2.7648,-2.7666,-2.7475,-2.7475,-2.7475,0,0,-2.697,-2.6995,-2.7031,-2.7099,-2.7126,-2.7184,-2.7131,-2.7195,-2.7239,-2.7208,-2.7292,-2.731,-2.7352,-2.7448,-2.7492,-2.7467,-2.7644,-2.7588,-2.7596,-2.7602,-2.7658,-2.7676,-2.7692,-2.7481,-2.748,-2.7479,0,0,-2.7087,-2.7111,-2.7184,-2.7212,-2.7253,-2.726,-2.7278,-2.7314,-2.7325,-2.7408,-2.7387,-2.7439,-2.7533,-2.7565,-2.7593,-2.7722,-2.7704,-2.7739,-2.7807,-2.7864,-2.7879,-2.7892,-2.794,-2.7957,-2.775,-2.775,-2.775,0,-2.7142,-2.7229,-2.7224,-2.729,-2.7321,-2.7294,-2.7369,-2.7396,-2.7452,-2.7475,-2.7446,-2.7565,-2.7591,-2.7695,-2.7726,-2.7749,-2.7771,-2.7735,-2.7877,-2.789,-2.7903,-2.7949,-2.7966,-2.7754,-2.7753,-2.7753,-2.7753,0,-2.7295,-2.7355,-2.7409,-2.7464,-2.7501,-2.757,-2.7577,-2.7615,-2.7608,-2.7619,-2.7705,-2.7735,-2.7794,-2.7817,-2.7811,-2.7921,-2.7905,-2.7876,-2.7825,-2.7925,-2.7968,-2.7986,-2.776,-2.7758,-2.7757,-2.7756,0,0,-2.745,-2.75,-2.752,-2.7545,-2.7588,-2.7635,-2.7704,-2.776,-2.7794,-2.7833,-2.7893,-2.7973,-2.7947,-2.7979,-2.7976,-2.8025,-2.8128,-2.7991,-2.7992,-2.8018,-2.8254,-2.8277,-2.8297,-2.8115,-2.8119,-2.8121,-2.8251,0,-2.7573,-2.7693,-2.769,-2.7802,-2.7859,-2.7834,-2.7894,-2.7927,-2.7939,-2.799,-2.8003,-2.8061,-2.8021,-2.8041,-2.8089,-2.8106,-2.8176,-2.8096,-2.8173,-2.8176,-2.8166,-2.832,-2.8344,-2.8465,-2.8268,-2.8271,-2.8273,0,-2.7732,-2.7777,-2.7894,-2.7929,-2.7953,-2.8007,-2.8059,-2.8107,-2.8145,-2.815,-2.8186,-2.8175,-2.8246,-2.8191,-2.829,-2.8236,-2.8266,-2.828,-2.8284,-2.8294,-2.8232,-2.8336,-2.8504,-2.8523,-2.8299,-2.8297,-2.8295,0,-2.7837,-2.7925,-2.8008,-2.8029,-2.8072,-2.8111,-2.8131,-2.8165,-2.8199,-2.8244,-2.8267,-2.832,-2.835,-2.8391,-2.8396,-2.8355,-2.8497,-2.8441,-2.8505,-2.8505,-2.8538,-2.8537,-2.8716,-2.8554,-2.8554,-2.8553,-2.8553,0,-2.7976,-2.8049,-2.8055,-2.8106,-2.8188,-2.8184,-2.8266,-2.8282,-2.8313,-2.8367,-2.8348,-2.84,-2.8401,-2.8454,-2.8458,-2.8541,-2.8554,-2.8562,-2.8562,-2.8565,-2.8565,-2.8587,-2.858,-2.8558,-2.8557,-2.8556,-2.8555,0,-2.8107,-2.8114,-2.8202,-2.8235,-2.8245,-2.8304,-2.8333,-2.8382,-2.8391,-2.846,-2.8476,-2.8492,-2.8554,-2.8561,-2.8634,-2.8636,-2.8737,-2.8727,-2.8724,-2.8724,-2.8788,-2.8783,-2.8991,-2.9019,-2.8836,-2.8837,-2.8839,0,-2.8197,-2.8253,-2.8291,-2.8326,-2.8347,-2.8403,-2.8438,-2.8436,-2.8473,-2.852,-2.8564,-2.8624,-2.8672,-2.8772,-2.8791,-2.8846,-2.8839,-2.8908,-2.8848,-2.8849,-2.8843,-2.8841,-2.8848,-2.8921,-2.8923,-2.8925,-2.8926,0,-2.8356,-2.8356,-2.8406,-2.8458,-2.8499,-2.854,-2.8578,-2.8608,-2.8611,-2.8653,-2.8716,-2.8753,-2.8826,-2.8887,-2.8941,-2.8962,-2.8946,-2.8944,-2.8963,-2.8967,-2.8964,-2.8969,-2.8759,-2.894,-2.8939,-2.8938,-2.8937,-2.8936,-2.8471,-2.852,-2.8555,-2.8611,-2.8639,-2.8676,-2.8724,-2.8739,-2.879,-2.885,-2.8845,-2.8915,-2.8952,-2.9023,-2.9048,-2.9104,-2.9081,-2.9107,-2.9114,-2.9121,-2.9129,-2.8953,-2.9113,-2.9113,-2.9112,-2.9112,-2.9112,0,-2.8631,-2.8652,-2.8704,-2.8757,-2.8802,-2.878,-2.8821,-2.8861,-2.8922,-2.8957,-2.9004,-2.9077,-2.9135,-2.9158,-2.9215,-2.9255,-2.9249,-2.927,-2.9269,-2.9274,-2.9144,-2.9124,-2.9274,-2.9274,-2.9274,-2.9274,-2.9274,-2.9274,-2.872,-2.8802,-2.8807,-2.8903,-2.8924,-2.8991,-2.9017,-2.905,-2.9078,-2.916,-2.9208,-2.9221,-2.9252,-2.9312,-2.9365,-2.937,-2.9393,-2.9419,-2.9421,-2.93,-2.9283,-2.9268,-2.9249,-2.9423,-2.9423,-2.9547,-2.9548,-2.9549]},{"header":{"parameterUnit":"m.s-1","parameterCategory":1,"la1":30.2991,"la2":30.254,"lo1":-89.0895,"lo2":-89.0444,"dy":0.0017,"dx":0.0017,"nx":28,"ny":28,"refTime":"2023-05-23T21:00:00:Z","depth":0,"parameterNumber":3,"parameterNumberName":"V-component_of_WINDS"},"data":[0,0,0,0,0,0,0,0,0,0,0,0,0,0,0,0,0,0,0,0,0,0,0,0,0,0,0,0,0,0,0,0,0,0,0,0,0,0,0,0,0,0,0,0,0,0,0,0,0,0,0,0,0,0,0,0,0,0,-3.782,-3.782,0,-3.7828,-3.7828,-3.7828,-3.7779,-3.7778,-3.7777,-3.7775,-3.7782,-3.7783,-3.7785,0,0,0,0,0,0,0,0,0,0,0,0,0,-3.776,-3.7761,-3.782,-3.782,-3.782,-3.7828,-3.7828,-3.7828,-3.778,-3.7778,-3.7776,-3.7775,-3.7781,-3.7783,-3.7785,0,0,0,0,0,0,0,0,0,0,0,0,0,-3.7779,-3.7762,-3.782,-3.7797,-3.7795,-3.7828,-3.7828,-3.7828,-3.778,-3.7778,-3.7776,-3.7774,-3.7781,-3.7783,-3.7785,-3.784,0,0,-3.7792,-3.7793,0,0,0,0,0,0,0,0,-3.7778,-3.7781,-3.78,-3.7798,-3.7796,-3.7801,-3.7809,-3.7832,-3.778,-3.7785,-3.7775,-3.7773,-3.779,-3.7791,-3.7797,-3.7841,-3.7841,-3.7792,-3.7793,-3.7794,-3.7795,0,0,0,0,0,0,0,-3.7777,-3.778,-3.7823,-3.78,-3.7798,-3.7785,-3.7786,-3.7814,-3.7799,-3.7785,-3.7781,-3.7783,-3.7788,-3.7795,-3.7797,-3.7841,-3.7792,-3.7794,-3.7795,-3.7796,-3.7931,-3.7933,0,0,0,0,0,0,-3.7779,-3.778,-3.7823,-3.7823,-3.7782,-3.7788,-3.7789,-3.7801,-3.7799,-3.7796,-3.7785,-3.7781,-3.7792,-3.7794,-3.7797,-3.7862,-3.7794,-3.7796,-3.7798,-3.7928,-3.7931,-3.7934,0,0,0,0,0,0,-3.7777,-3.7783,-3.7822,-3.7801,-3.7805,-3.7791,-3.7806,-3.7803,-3.7809,-3.7799,-3.7796,-3.7795,-3.7791,-3.7794,-3.783,-3.7861,-3.7797,-3.7799,-3.7926,-3.7929,-3.7932,-3.7992,0,0,0,0,0,0,-3.7776,-3.7783,-3.7804,-3.7801,-3.7806,-3.7856,-3.7808,-3.7804,-3.7814,-3.7808,-3.7807,-3.7805,-3.7789,-3.7827,-3.7832,-3.7863,-3.7801,-3.7923,-3.7927,-3.7931,-3.7987,-3.7997,-3.8005,0,0,0,0,0,-3.7774,-3.782,-3.7805,-3.7811,-3.7832,-3.7858,-3.7861,-3.7842,-3.7816,-3.7837,-3.783,-3.7805,-3.7857,-3.7831,-3.7837,-3.7869,-3.7921,-3.7926,-3.7931,-3.7983,-3.7995,-3.8005,0,0,0,0,0,0,-3.7826,-3.7819,-3.7803,-3.785,-3.7855,-3.785,-3.7876,-3.7856,-3.7868,-3.7862,-3.7838,-3.7839,-3.7879,-3.7877,-3.7849,-3.7922,-3.7884,-3.7891,-3.7922,-3.7933,-3.7942,-3.7942,-3.7803,0,0,0,0,0,-3.7843,-3.7865,-3.7858,-3.7899,-3.7903,-3.7889,-3.79,-3.7885,-3.7889,-3.7891,-3.7887,-3.7892,-3.7909,-3.7921,-3.7936,-3.7986,-3.7985,-3.8011,-3.802,-3.8028,-3.8033,-3.806,-3.8071,-3.795,-3.795,-3.795,0,0,-3.7878,-3.7877,-3.7892,-3.791,-3.7912,-3.7935,-3.7891,-3.7917,-3.7934,-3.7895,-3.7929,-3.7926,-3.793,-3.7974,-3.7993,-3.7973,-3.8067,-3.8034,-3.804,-3.8042,-3.8066,-3.8078,-3.8088,-3.7954,-3.7953,-3.7952,0,0,-3.7953,-3.7955,-3.799,-3.7994,-3.7999,-3.7989,-3.7998,-3.7996,-3.7993,-3.8027,-3.7998,-3.8017,-3.8048,-3.8052,-3.8057,-3.8135,-3.8112,-3.8141,-3.8188,-3.8215,-3.8224,-3.8232,-3.826,-3.8271,-3.8147,-3.8147,-3.8147,0,-3.7996,-3.803,-3.8011,-3.8039,-3.8048,-3.8014,-3.8049,-3.8054,-3.8063,-3.8069,-3.8048,-3.8085,-3.8085,-3.813,-3.8149,-3.8155,-3.8163,-3.8141,-3.8224,-3.8233,-3.824,-3.8266,-3.8277,-3.815,-3.815,-3.8149,-3.8149,0,-3.8083,-3.8107,-3.8135,-3.8146,-3.8157,-3.8189,-3.8173,-3.8187,-3.8172,-3.8165,-3.82,-3.8199,-3.8214,-3.8223,-3.8208,-3.8265,-3.8253,-3.8229,-3.819,-3.8256,-3.828,-3.829,-3.8155,-3.8154,-3.8153,-3.8152,0,0,-3.8191,-3.8191,-3.8202,-3.8206,-3.8209,-3.8227,-3.8257,-3.8272,-3.8285,-3.8292,-3.8317,-3.8343,-3.8321,-3.8327,-3.8312,-3.8336,-3.8398,-3.8308,-3.8307,-3.8325,-3.8461,-3.848,-3.8492,-3.8382,-3.8384,-3.8386,-3.8461,0,-3.8265,-3.8317,-3.8301,-3.8353,-3.8375,-3.8344,-3.837,-3.8374,-3.8369,-3.8386,-3.8379,-3.8398,-3.8367,-3.8371,-3.8392,-3.8386,-3.8425,-3.838,-3.8405,-3.8406,-3.8405,-3.8505,-3.8524,-3.8595,-3.847,-3.8472,-3.8473,0,-3.8359,-3.8371,-3.8426,-3.8426,-3.8434,-3.8458,-3.8471,-3.8488,-3.8492,-3.8486,-3.8494,-3.8475,-3.8503,-3.8465,-3.8505,-3.8475,-3.8484,-3.8482,-3.8484,-3.8486,-3.8443,-3.8509,-3.8618,-3.8628,-3.8488,-3.8486,-3.8485,0,-3.8433,-3.8463,-3.85,-3.8504,-3.8505,-3.8522,-3.8523,-3.8525,-3.8536,-3.8547,-3.8553,-3.8567,-3.8575,-3.8586,-3.857,-3.8544,-3.8612,-3.8572,-3.8608,-3.8608,-3.8623,-3.8623,-3.8735,-3.8629,-3.8629,-3.8629,-3.8629,0,-3.8517,-3.8552,-3.8533,-3.8556,-3.8594,-3.8574,-3.8612,-3.8609,-3.8612,-3.8633,-3.8606,-3.8627,-3.8605,-3.8623,-3.8611,-3.8646,-3.8649,-3.8645,-3.8641,-3.8648,-3.8648,-3.8653,-3.8648,-3.8632,-3.8631,-3.8631,-3.863,0,-3.8606,-3.8595,-3.8633,-3.8631,-3.8631,-3.8659,-3.8656,-3.8677,-3.8669,-3.8697,-3.8702,-3.869,-3.871,-3.8696,-3.8715,-3.8707,-3.8753,-3.8742,-3.8752,-3.8749,-3.8786,-3.8783,-3.8905,-3.8921,-3.8805,-3.8806,-3.8807,0,-3.8661,-3.8687,-3.8688,-3.8701,-3.8704,-3.8725,-3.8735,-3.8717,-3.8729,-3.8736,-3.8756,-3.8774,-3.8787,-3.8821,-3.8814,-3.8829,-3.8818,-3.886,-3.882,-3.8826,-3.8819,-3.8818,-3.8821,-3.8869,-3.887,-3.8871,-3.8872,0,-3.876,-3.8753,-3.877,-3.8785,-3.8799,-3.881,-3.8819,-3.883,-3.8812,-3.8827,-3.8847,-3.8858,-3.8879,-3.8897,-3.8909,-3.8909,-3.8888,-3.8885,-3.8894,-3.89,-3.8905,-3.8903,-3.8774,-3.8882,-3.8881,-3.888,-3.888,-3.8879,-3.8834,-3.8856,-3.886,-3.888,-3.8885,-3.8893,-3.8913,-3.8908,-3.8925,-3.8941,-3.8929,-3.8954,-3.8957,-3.8972,-3.8975,-3.8994,-3.8977,-3.899,-3.8993,-3.8997,-3.9002,-3.8902,-3.8996,-3.8996,-3.8995,-3.8995,-3.8995,0,-3.8931,-3.8933,-3.8951,-3.8965,-3.898,-3.8959,-3.8968,-3.8982,-3.9004,-3.901,-3.9024,-3.9048,-3.9066,-3.906,-3.9076,-3.9092,-3.9082,-3.9097,-3.9095,-3.9096,-3.9016,-3.9007,-3.9104,-3.9104,-3.9104,-3.9104,-3.9104,-3.9104,-3.8984,-3.9021,-3.9015,-3.9053,-3.9054,-3.9079,-3.9085,-3.9093,-3.9098,-3.9126,-3.9141,-3.9137,-3.9138,-3.9154,-3.9169,-3.9167,-3.9174,-3.9192,-3.9186,-3.9112,-3.9101,-3.9091,-3.9082,-3.9194,-3.9194,-3.9264,-3.9265,-3.9265]}]]